IRIDIUM 12 [P]

Last updated on Fri Aug 17 2018 00:20:50 GMT+0000 (Coordinated Universal Time)

1 24837U 97030B 18228.44239601 .00000274 00000-0 38041-4 0 9996 2 24837 86.4196 172.3195 0086275 173.6326 289.2479 14.70762489107966
UTC large
Height (km)
Speed (km/s)
/
Latitude / Longitude
Inclination (degrees)
Orbital Period (minutes)
Azimuth
Elevation
Range (km)
Doppler Factor

Next 0 passes for location: London (51.5072 / 0.1276)

Sorry there are no passes over London.